Find OneWeb SL0136

NORAD ID: 47273 Int'l Des: 2020-100 Owner: ONEWEB Country: UK Constellation: oneweb operational
LEOCIRCULARPOLARONEWEB_TYPE

实时位置

正在加载3D地球...

关于 OneWeb SL0136

正在加载描述...

即将过境

Passes for default location (London). Set your location on the main map for personalized predictions.

高度历史

Loading altitude history...

两行轨道根数

1 47273U 20100R 26126.38309292 -.00000034 00000-0 -12855-3 0 9992
2 47273 87.8969 358.9829 0001630 80.2482 279.8831 13.12445835259246
Epoch: May 6, 2026 • Age: 8 hours

当前状态

高度 1216.6 km
速度 7.25 km/s
星下点 26.87°N, 53.92°E
发射日期 Dec 18, 2020
运行时间 5.3 years
类型 internet

技术详情

分类 Payload
质量 148.00 kg
干质量 140.00 kg
总质量 148.00 kg
长度 1.30 m
直径 1.00 m
跨度 5.00 m
形状 Trapezoid+2 pan
制造商 ONEWUS
平台类型 ARROW
阶段状态 In Orbit
所有者/国家 ONEWEB/UK

Most Searched